This is the latest recevied weather packets stored in our database for station/object IU2RPR-3. If no packets are shown the sender has not sent any weather packets the latest 10 day(s).
| Time | Temp. | Humidity | Pressure | Rain* | Wind** | Luminosity | Snow |
|---|---|---|---|---|---|---|---|
| 1788565700 | 23.33° C | 59% | 1016 hPa | - | - | - | - |
| 1788564498 | 23.33° C | 58% | 1016 hPa | - | - | - | - |
| 1788563297 | 23.33° C | 58% | 1016 hPa | - | - | - | - |
| 1788562123 | 24.44° C | 56% | 1015.8 hPa | - | - | - | - |
| 1788560894 | 23.89° C | 56% | 1015.9 hPa | - | - | - | - |
| 1788559693 | 23.89° C | 58% | 1016 hPa | - | - | - | - |
| 1788558492 | 23.89° C | 56% | 1016.2 hPa | - | - | - | - |
| 1788557291 | 24.44° C | 55% | 1016.2 hPa | - | - | - | - |
| 1788556089 | 24.44° C | 55% | 1016.4 hPa | - | - | - | - |
| 1788554888 | 25° C | 55% | 1016.3 hPa | - | - | - | - |
| 1788553687 | 25.56° C | 52% | 1016.2 hPa | - | - | - | - |
| 1788552486 | 25.56° C | 52% | 1016.1 hPa | - | - | - | - |
| 1788551284 | 25.56° C | 54% | 1016.2 hPa | - | - | - | - |
| 1788550083 | 26.67° C | 53% | 1016.2 hPa | - | - | - | - |
| 1788548882 | 26.67° C | 52% | 1016.1 hPa | - | - | - | - |
| 1788547681 | 27.78° C | 50% | 1015.9 hPa | - | - | - | - |
| 1788546479 | 28.89° C | 43% | 1015.6 hPa | - | - | - | - |
| 1788545278 | 30.56° C | 39% | 1015.2 hPa | - | - | - | - |
| 1788544077 | 31.11° C | 37% | 1015 hPa | - | - | - | - |
| 1788542876 | 34.44° C | 32% | 1014.9 hPa | - | - | - | - |
| 1788541674 | 36.11° C | 29% | 1015 hPa | - | - | - | - |
| 1788540473 | 36.11° C | 29% | 1014.9 hPa | - | - | - | - |
| 1788539272 | 35° C | 30% | 1015.1 hPa | - | - | - | - |
| 1788538070 | 37.78° C | 28% | 1015.6 hPa | - | - | - | - |
| 1788536869 | 36.11° C | 30% | 1015.4 hPa | - | - | - | - |
* Rain since midnight (hover to see other rain measurements)
** Current wind speed in m/s (hover to see current wind gust speed)